Location: *
(46.3500°N, 10.9000°E)
Time: 21:35:22
(UTC+00:00)

Explorer 7 - Pass Details

Date: 26 April 2021
Orbit: 484 x 677 km, 50.3° (Epoch: 05 May)

Event Time Altitude Azimuth Distance (km) Brightness Sun altitude
Rises 21:01:32 0° 291° (WNW) 2,691 11.2 -22.9°
Reaches altitude 10° 21:03:43 10° 294° (WNW) 1,829 10.3 -23.1°
Maximum altitude 21:07:52 68° 17° (NNE) 622 7.1 -23.5°
Enters shadow 21:08:13 65° 51° (NE) 640 7.0 -23.5°
Drops below altitude 10° 21:12:19 10° 102° (ESE) 1,948 - -23.9°
Sets 21:14:42 0° 104° (ESE) 2,884 - -24.1°
